When you browse on this site, cookies collect data to enhance your experience and personalize the content and advertising you see.
Visit our Privacy Policy to learn more. By continuing to use the site, you agree to this use of cookies and data.

Tiempo cada hora Puerto Montt

Hoy, 15 Agosto, Sábado

Tiempo Temperatura Precipitaciones Viento Presión Humedad
00:00 +1°C° 0.3 mm 4 mps 761 mmHg 90%
01:00 +1°C° 0.3 mm 5 mps 762 mmHg 91%
02:00 +1°C° 0.1 mm 4 mps 762 mmHg 91%
03:00 +1°C° 0.1 mm 4 mps 762 mmHg 91%
04:00 0°C° 0.1 mm 4 mps 763 mmHg 91%
05:00 +1°C° 0.1 mm 3 mps 763 mmHg 91%
06:00 +1°C° 0.1 mm 3 mps 764 mmHg 91%
07:00 +1°C° 0.1 mm 3 mps 765 mmHg 92%
08:00 +4°C° 0.1 mm 2 mps 765 mmHg 89%
09:00 +5°C° 0.1 mm 2 mps 765 mmHg 86%
10:00 +6°C° 0.1 mm 2 mps 765 mmHg 83%
11:00 +8°C° 0.2 mm 1 mps 765 mmHg 81%
12:00 +8°C° 0.2 mm 1 mps 765 mmHg 79%
13:00 +8°C° 0.2 mm 1 mps 764 mmHg 77%
14:00 +8°C° 0.2 mm 1 mps 764 mmHg 80%
15:00 +7°C° 0.2 mm 2 mps 764 mmHg 82%
16:00 +7°C° 0.2 mm 3 mps 764 mmHg 85%
17:00 +5°C° 0.3 mm 3 mps 763 mmHg 88%
18:00 +5°C° 0.3 mm 3 mps 763 mmHg 91%
19:00 +4°C° 0.3 mm 3 mps 763 mmHg 94%
20:00 +4°C° 0.6 mm 3 mps 763 mmHg 95%
21:00 +4°C° 0.6 mm 4 mps 763 mmHg 96%
22:00 +5°C° 0.6 mm 4 mps 762 mmHg 96%
23:00 +5°C° 0.4 mm 4 mps 762 mmHg 96%

Mañana, 16 Agosto, Domingo

Tiempo Temperatura Precipitaciones Viento Presión Humedad
00:00 +5°C° 0.4 mm 4 mps 761 mmHg 96%
01:00 +5°C° 0.4 mm 4 mps 761 mmHg 95%
02:00 +5°C° 0.7 mm 4 mps 761 mmHg 96%
03:00 +5°C° 0.7 mm 4 mps 760 mmHg 96%
04:00 +5°C° 0.7 mm 4 mps 760 mmHg 96%
05:00 +7°C° 0.4 mm 3 mps 760 mmHg 96%
06:00 +7°C° 0.4 mm 3 mps 760 mmHg 96%
07:00 +7°C° 0.4 mm 3 mps 760 mmHg 96%
08:00 +7°C° 0.3 mm 2 mps 760 mmHg 95%
09:00 +8°C° 0.3 mm 2 mps 761 mmHg 93%
10:00 +8°C° 0.3 mm 2 mps 761 mmHg 91%
11:00 +9°C° 0.2 mm 2 mps 761 mmHg 89%
12:00 +9°C° 0.2 mm 2 mps 762 mmHg 88%
13:00 +10°C° 0.2 mm 1 mps 762 mmHg 86%
14:00 +9°C° 0.2 mm 2 mps 762 mmHg 85%
15:00 +9°C° 0.2 mm 2 mps 762 mmHg 84%
16:00 +9°C° 0.2 mm 2 mps 762 mmHg 84%
17:00 +7°C° 0.1 mm 2 mps 762 mmHg 87%
18:00 +7°C° 0.1 mm 1 mps 763 mmHg 90%
19:00 +5°C° 0.1 mm 1 mps 763 mmHg 93%
20:00 +5°C° 0 mm 1 mps 763 mmHg 93%
21:00 +5°C° 0 mm 1 mps 764 mmHg 93%
22:00 +5°C° 0 mm 1 mps 764 mmHg 93%
23:00 +5°C° 0 mm 1 mps 764 mmHg 92%

Pasado mañana, 17 Agosto, Lunes

Tiempo Temperatura Precipitaciones Viento Presión Humedad
00:00 +6°C° 0 mm 1 mps 764 mmHg 91%
01:00 +6°C° 0 mm 1 mps 764 mmHg 91%
02:00 +5°C° 0 mm 2 mps 764 mmHg 91%
03:00 +5°C° 0 mm 2 mps 763 mmHg 91%
04:00 +5°C° 0 mm 2 mps 763 mmHg 91%
05:00 +5°C° 0 mm 2 mps 763 mmHg 92%
06:00 +5°C° 0 mm 2 mps 762 mmHg 92%
07:00 +5°C° 0 mm 2 mps 762 mmHg 93%
08:00 +4°C° 0.2 mm 3 mps 762 mmHg 92%
09:00 +4°C° 0.2 mm 3 mps 762 mmHg 92%
10:00 +5°C° 0.2 mm 4 mps 761 mmHg 92%
11:00 +5°C° 0.2 mm 4 mps 761 mmHg 91%
12:00 +6°C° 0.2 mm 4 mps 760 mmHg 91%
13:00 +7°C° 0.2 mm 3 mps 759 mmHg 90%
14:00 +7°C° 0.6 mm 3 mps 759 mmHg 91%
15:00 +7°C° 0.6 mm 3 mps 758 mmHg 93%
16:00 +7°C° 0.6 mm 3 mps 758 mmHg 94%
17:00 +7°C° 0.6 mm 3 mps 757 mmHg 94%
18:00 +7°C° 0.6 mm 3 mps 757 mmHg 94%
19:00 +6°C° 0.6 mm 4 mps 756 mmHg 95%
20:00 +6°C° 0.8 mm 4 mps 757 mmHg 95%
21:00 +6°C° 0.8 mm 4 mps 757 mmHg 95%
22:00 +6°C° 0.8 mm 4 mps 757 mmHg 95%
23:00 +5°C° 0.3 mm 3 mps 757 mmHg 95%

18 Agosto, Martes

Tiempo Temperatura Precipitaciones Viento Presión Humedad
00:00 +4°C° 0.3 mm 3 mps 757 mmHg 94%
01:00 +3°C° 0.3 mm 3 mps 758 mmHg 93%
02:00 +3°C° 0.2 mm 3 mps 758 mmHg 93%
03:00 +3°C° 0.2 mm 3 mps 758 mmHg 93%
04:00 +2°C° 0.2 mm 3 mps 759 mmHg 93%
05:00 +3°C° 0.4 mm 3 mps 759 mmHg 94%
06:00 +3°C° 0.4 mm 3 mps 760 mmHg 95%
07:00 +3°C° 0.4 mm 4 mps 760 mmHg 95%
08:00 +3°C° 0.3 mm 4 mps 761 mmHg 90%
09:00 +3°C° 0.3 mm 5 mps 762 mmHg 85%
10:00 +5°C° 0.3 mm 5 mps 762 mmHg 80%
11:00 +5°C° 0.1 mm 5 mps 763 mmHg 75%
12:00 +6°C° 0.1 mm 4 mps 763 mmHg 69%
13:00 +7°C° 0.1 mm 4 mps 764 mmHg 64%
14:00 +6°C° 0.1 mm 4 mps 764 mmHg 68%
15:00 +6°C° 0.1 mm 4 mps 765 mmHg 72%
16:00 +6°C° 0.1 mm 4 mps 765 mmHg 77%
17:00 +4°C° 0 mm 3 mps 766 mmHg 80%
18:00 +3°C° 0 mm 3 mps 767 mmHg 83%
19:00 +2°C° 0 mm 3 mps 768 mmHg 86%
20:00 +2°C° 0 mm 2 mps 769 mmHg 87%
21:00 +2°C° 0 mm 2 mps 770 mmHg 88%
22:00 +1°C° 0 mm 2 mps 770 mmHg 89%
23:00 +1°C° 0 mm 2 mps 771 mmHg 89%

19 Agosto, Miércoles

Tiempo Temperatura Precipitaciones Viento Presión Humedad
00:00 +2°C° 0 mm 1 mps 771 mmHg 90%
01:00 +1°C° 0 mm 1 mps 772 mmHg 90%
02:00 +1°C° 0 mm 1 mps 772 mmHg 90%
03:00 +1°C° 0 mm 1 mps 772 mmHg 90%
04:00 +1°C° 0 mm 1 mps 772 mmHg 89%
05:00 +1°C° 0 mm 1 mps 773 mmHg 88%
06:00 0°C° 0 mm 1 mps 773 mmHg 88%
07:00 0°C° 0 mm 1 mps 773 mmHg 87%
08:00 +3°C° 0 mm 1 mps 773 mmHg 78%
09:00 +5°C° 0 mm 1 mps 773 mmHg 69%
10:00 +8°C° 0 mm 1 mps 773 mmHg 61%
11:00 +8°C° 0 mm 1 mps 773 mmHg 59%
12:00 +8°C° 0 mm 2 mps 773 mmHg 57%
13:00 +9°C° 0 mm 2 mps 772 mmHg 56%
14:00 +8°C° 0 mm 3 mps 772 mmHg 60%
15:00 +8°C° 0 mm 3 mps 772 mmHg 64%
16:00 +7°C° 0 mm 3 mps 772 mmHg 69%
17:00 +5°C° 0 mm 3 mps 773 mmHg 76%
18:00 +3°C° 0 mm 3 mps 773 mmHg 84%
19:00 +2°C° 0 mm 2 mps 773 mmHg 92%
20:00 +2°C° 0 mm 2 mps 773 mmHg 91%
21:00 +2°C° 0 mm 2 mps 773 mmHg 91%
22:00 +2°C° 0 mm 1 mps 773 mmHg 91%
23:00 +2°C° 0 mm 1 mps 773 mmHg 89%

20 Agosto, Jueves

Tiempo Temperatura Precipitaciones Viento Presión Humedad
00:00 +2°C° 0 mm 1 mps 773 mmHg 88%
01:00 +2°C° 0 mm 1 mps 772 mmHg 87%
02:00 +2°C° 0 mm 1 mps 772 mmHg 85%
03:00 +1°C° 0 mm 1 mps 772 mmHg 84%
04:00 +1°C° 0 mm 1 mps 772 mmHg 83%
05:00 +1°C° 0 mm 1 mps 771 mmHg 82%
06:00 +1°C° 0 mm 1 mps 771 mmHg 81%
07:00 +1°C° 0 mm 1 mps 771 mmHg 80%
08:00 +4°C° 0 mm 1 mps 771 mmHg 73%
09:00 +6°C° 0 mm 1 mps 770 mmHg 65%
10:00 +8°C° 0 mm 1 mps 770 mmHg 57%
11:00 +8°C° 0 mm 2 mps 770 mmHg 59%
12:00 +9°C° 0 mm 3 mps 769 mmHg 61%
13:00 +8°C° 0 mm 4 mps 769 mmHg 63%
14:00 +9°C° 0 mm 3 mps 769 mmHg 68%
15:00 +8°C° 0 mm 3 mps 769 mmHg 73%
16:00 +8°C° 0 mm 3 mps 768 mmHg 78%
17:00 +7°C° 0 mm 3 mps 769 mmHg 82%
18:00 +5°C° 0 mm 3 mps 769 mmHg 85%
19:00 +5°C° 0 mm 2 mps 769 mmHg 88%
20:00 +5°C° 0 mm 2 mps 769 mmHg 89%
21:00 +5°C° 0 mm 2 mps 769 mmHg 90%
22:00 +5°C° 0 mm 2 mps 769 mmHg 91%
23:00 +5°C° 0 mm 2 mps 769 mmHg 90%
Mostrar más